Flag Weather past 2 weeks in Playa del Carmen, Quintana Roo, Mexico

Now
68 °F

Passing clouds.


Feels Like: 68 °F
Forecast: 71 / 76 °F
Wind: 9 mph from East

Location: Cozumel Civ / Mil

Current Time: Nov 29, 2014 at 12:32:28 AM

Latest Report: Nov 28, 2014 at 11:47 PM


Visibility: 7 mi

Pressure: 30.10 "Hg

Humidity: 73%

Dew point: 59 °F

Location of Playa del CarmenLocation

Historic Weather in Playa del Carmen — Graph

°F

Playa del Carmen temperature yesterday

Maximum temperature yesterday: 75 °F (at 10:41 AM)
Minimum temperature yesterday: 68 °F (at 11:00 PM)
Average temperature yesterday: 72 °F

Past Weeks' High & Low Weather Summary

 TemperatureHumidityPressure
High82 °F (Nov 17, 10:40 AM)100% (Nov 15, 4:55 AM)30.25 "Hg (Nov 15, 4:55 AM)
Low64 °F (Nov 15, 5:45 AM)61% (Nov 28, 11:45 AM)29.80 "Hg (Nov 23, 5:41 PM)
Average73 °F89%30.03 "Hg
* Reported Nov 13 11:42 PM — Nov 28 11:00 PM, Playa del Carmen, Weather by CustomWeather, © 2014

Note: Actual official high and low records may vary slightly from our data, if they occured in-between our weather recording intervals... More about our weather records

Advertising

Playa del Carmen weather history for previous 24 hours

 ConditionsComfort  
Time TempWeatherWind HumidityBarometerVisibility
11:00 PM
Nov 28
68 °FPassing clouds.8 mph69%30.13 "Hg7 mi
9:41 PM70 °FPassing clouds.17 mph73%30.14 "Hg7 mi
8:45 PM70 °FPassing clouds.14 mph69%30.16 "Hg7 mi
7:43 PM70 °FPassing clouds.8 mph69%30.14 "Hg7 mi
6:42 PM70 °FPassing clouds.8 mph69%30.12 "Hg7 mi
5:51 PM70 °FPassing clouds.9 mph73%30.10 "Hg7 mi
4:47 PM72 °FScattered clouds.8 mph69%30.11 "Hg8 mi
3:43 PM72 °FScattered clouds.14 mph73%30.11 "Hg8 mi
2:40 PM72 °FScattered clouds.16 mph69%30.14 "Hg8 mi
1:43 PM73 °FScattered clouds.17 mph69%30.13 "Hg8 mi
12:47 PM72 °FScattered clouds.9 mph73%30.15 "Hg8 mi
11:45 AM75 °FScattered clouds.21 mph61%30.15 "Hg8 mi
10:41 AM75 °FScattered clouds.20 mph65%30.20 "Hg8 mi
9:46 AM73 °FScattered clouds.15 mph69%30.21 "Hg8 mi
8:42 AM73 °FScattered clouds.16 mph65%30.23 "Hg8 mi
7:42 AM73 °FScattered clouds.17 mph65%30.19 "Hg8 mi
6:49 AM72 °FScattered clouds.14 mph69%30.18 "Hg7 mi
5:42 AM70 °FPassing clouds.9 mph83%30.13 "Hg7 mi
4:40 AM72 °FPassing clouds.15 mph69%30.15 "Hg7 mi
3:54 AM72 °FPassing clouds.10 mph69%30.14 "Hg7 mi
2:40 AM72 °FPassing clouds.12 mph73%30.17 "Hg7 mi
1:52 AM72 °FPassing clouds.12 mph69%30.16 "Hg7 mi
12:50 AM72 °FPassing clouds.14 mph69%30.17 "Hg7 mi
Weather by CustomWeather, © 2014

See weather overviewHow to use our weather pages